KB0RPJ Weather Reports


time (UTC)temp
C
wind
direction
speed
KPH
gust
KPH
rain 1hr
cm
rain 24hr
cm
rain mn
cm
humidity
%
barometer
mb
20260508014505 16 155 1.6 8.0 0.00 0.00 0.00 53 1008.9
20260508014005 16 145 4.8 9.7 0.00 0.00 0.00 53 1008.9
20260508013505 17 153 4.8 9.7 0.00 0.00 0.00 52 1008.9
20260508013005 17 154 3.2 4.8 0.00 0.00 0.00 52 1008.8
20260508012516 17 181 4.8 9.7 0.00 0.00 0.00 51 1008.9
20260508012005 17 169 8.0 9.7 0.00 0.00 0.00 51 1008.8
20260508011509 17 161 4.8 4.8 0.00 0.00 0.00 50 1008.8
20260508011005 17 150 6.4 8.0 0.00 0.00 0.00 50 1008.8
20260508010505 17 163 4.8 8.0 0.00 0.00 0.00 49 1008.8
20260508010004 17 178 11.3 14.5 0.00 0.00 0.00 49 1008.8
20260508005505 18 157 8.0 9.7 0.00 0.00 0.00 49 1008.8
20260508005008 18 156 6.4 9.7 0.00 0.00 0.00 48 1008.8
20260508004504 18 180 4.8 9.7 0.00 0.00 0.00 49 1008.8
20260508004005 18 186 9.7 11.3 0.00 0.00 0.00 48 1008.8
20260508003505 18 178 12.9 16.1 0.00 0.00 0.00 48 1008.8
20260508003005 18 177 4.8 9.7 0.00 0.00 0.00 48 1008.8
20260508002505 18 171 6.4 14.5 0.00 0.00 0.00 47 1008.8
20260508002005 18 150 6.4 11.3 0.00 0.00 0.00 47 1008.8
20260508001504 18 165 17.7 22.5 0.00 0.00 0.00 47 1008.8
20260508001005 18 194 9.7 11.3 0.00 0.00 0.00 46 1008.9
20260508000505 19 179 8.0 11.3 0.00 0.00 0.00 45 1009.0
20260508000005 19 191 8.0 11.3 0.00 0.00 0.00 46 1009.0
20260507235515 19 170 8.0 9.7 0.00 0.00 0.00 46 1009.1
20260507235006 20 204 16.1 16.1 0.00 0.00 0.00 45 1009.1
20260507234508 19 143 14.5 16.1 0.00 0.00 0.00 45 1009.2
20260507234008 19 197 8.0 11.3 0.00 0.00 0.00 46 1009.2
20260507233506 19 194 8.0 11.3 0.00 0.00 0.00 44 1009.2
20260507233005 20 195 25.7 25.7 0.00 0.00 0.00 44 1009.4
20260507232506 20 215 11.3 22.5 0.00 0.00 0.00 44 1009.3
20260507232006 20 163 8.0 12.9 0.00 0.00 0.00 44 1009.3
20260507231505 20 183 8.0 14.5 0.00 0.00 0.00 44 1009.3
20260507231008 20 157 4.8 14.5 0.00 0.00 0.00 46 1009.4
20260507230505 20 211 11.3 19.3 0.00 0.00 0.00 44 1009.6
20260507230008 20 176 6.4 12.9 0.00 0.00 0.00 45 1009.6
20260507225505 20 201 14.5 16.1 0.00 0.00 0.00 43 1009.7
20260507225007 20 184 12.9 14.5 0.00 0.00 0.00 44 1009.7
20260507224505 20 162 8.0 11.3 0.00 0.00 0.00 44 1009.8
20260507224005 20 186 9.7 19.3 0.00 0.00 0.00 43 1009.8
20260507223504 20 180 9.7 24.1 0.00 0.00 0.00 43 1009.8
20260507223005 20 195 14.5 24.1 0.00 0.00 0.00 43 1010.0
20260507222504 20 173 11.3 11.3 0.00 0.00 0.00 43 1010.0
20260507222005 20 192 11.3 14.5 0.00 0.00 0.00 43 1010.2
20260507221505 20 208 12.9 16.1 0.00 0.00 0.00 43 1010.2
20260507221005 21 229 9.7 14.5 0.00 0.00 0.00 43 1010.2
20260507220505 20 195 9.7 25.7 0.00 0.00 0.00 43 1010.3
20260507220005 20 175 11.3 25.7 0.00 0.00 0.00 44 1010.3
20260507215505 20 174 8.0 19.3 0.00 0.00 0.00 43 1010.4
20260507215005 20 213 8.0 19.3 0.00 0.00 0.00 46 1010.4
20260507214507 20 151 11.3 14.5 0.00 0.00 0.00 43 1010.4
20260507214005 19 214 16.1 16.1 0.00 0.00 0.00 45 1010.4
20260507213505 19 179 16.1 16.1 0.00 0.00 0.00 45 1010.5
20260507213005 19 167 12.9 16.1 0.00 0.00 0.00 44 1010.5
20260507212519 19 179 14.5 22.5 0.00 0.00 0.00 43 1010.5
20260507212006 19 222 9.7 14.5 0.00 0.00 0.00 41 1010.6
20260507211512 20 227 8.0 14.5 0.00 0.00 0.00 43 1010.6
20260507211005 19 191 11.3 16.1 0.00 0.00 0.00 47 1010.5
20260507210510 19 224 14.5 16.1 0.00 0.00 0.00 43 1010.7
20260507210005 20 166 12.9 20.9 0.00 0.00 0.00 42 1010.6
20260507205506 20 182 9.7 14.5 0.00 0.00 0.00 42 1010.7
20260507205008 20 244 14.5 24.1 0.00 0.00 0.00 41 1010.7
20260507204505 20 184 19.3 22.5 0.00 0.00 0.00 42 1010.8
20260507204004 20 232 17.7 19.3 0.00 0.00 0.00 41 1010.8
20260507203505 20 210 12.9 14.5 0.00 0.00 0.00 41 1010.8
20260507203004 20 186 14.5 19.3 0.00 0.00 0.00 41 1010.8
20260507202504 20 216 14.5 19.3 0.00 0.00 0.00 40 1011.0
20260507202005 20 229 11.3 19.3 0.00 0.00 0.00 41 1011.0
20260507201505 20 196 9.7 27.4 0.00 0.00 0.00 41 1011.2
20260507201005 20 197 12.9 12.9 0.00 0.00 0.00 43 1011.1
20260507200504 20 176 22.5 24.1 0.00 0.00 0.00 43 1011.3
20260507200004 20 193 16.1 19.3 0.00 0.00 0.00 43 1011.3
20260507195505 20 222 25.7 27.4 0.00 0.00 0.00 43 1011.4
20260507195005 19 168 14.5 19.3 0.00 0.00 0.00 43 1011.4
20260507194517 20 210 14.5 14.5 0.00 0.00 0.00 44 1011.5
20260507194005 19 220 11.3 22.5 0.00 0.00 0.00 42 1011.6
20260507193505 19 233 19.3 24.1 0.00 0.00 0.00 43 1011.7
20260507193005 19 218 9.7 24.1 0.00 0.00 0.00 45 1011.8
20260507192505 19 218 4.8 35.4 0.00 0.00 0.00 43 1011.8
20260507192005 19 301 16.1 35.4 0.00 0.00 0.00 43 1011.7
20260507191505 18 221 9.7 12.9 0.00 0.00 0.00 44 1011.9
20260507191006 18 211 22.5 24.1 0.00 0.00 0.00 44 1011.9
20260507190508 18 230 17.7 20.9 0.00 0.00 0.00 42 1012.1
20260507190007 18 229 9.7 14.5 0.00 0.00 0.00 45 1012.0
20260507185506 18 236 16.1 16.1 0.00 0.00 0.00 45 1012.2
20260507185007 18 308 8.0 12.9 0.00 0.00 0.00 44 1012.2
20260507184505 18 221 11.3 24.1 0.00 0.00 0.00 44 1012.4
20260507184005 18 235 12.9 19.3 0.00 0.00 0.00 45 1012.5
20260507183504 18 220 11.3 19.3 0.00 0.00 0.00 44 1012.4
20260507183005 18 219 11.3 14.5 0.00 0.00 0.00 44 1012.4
20260507182505 18 190 14.5 19.3 0.00 0.00 0.00 46 1012.5
20260507182005 18 152 17.7 19.3 0.00 0.00 0.00 44 1012.6
20260507181504 18 220 22.5 33.8 0.00 0.00 0.00 45 1012.6
20260507181009 18 210 11.3 19.3 0.00 0.00 0.00 46 1012.6
20260507180508 18 234 3.2 20.9 0.00 0.00 0.00 44 1012.7
20260507180005 17 211 16.1 20.9 0.00 0.00 0.00 48 1012.7
20260507175504 17 207 16.1 20.9 0.00 0.00 0.00 46 1012.9
20260507175005 17 223 16.1 19.3 0.00 0.00 0.00 45 1012.8
20260507174506 17 209 11.3 20.9 0.00 0.00 0.00 46 1013.0
20260507174005 17 203 22.5 22.5 0.00 0.00 0.00 47 1013.1
20260507173505 17 189 19.3 24.1 0.00 0.00 0.00 45 1013.2
20260507173005 17 201 11.3 22.5 0.00 0.00 0.00 46 1013.2
20260507172512 17 216 19.3 24.1 0.00 0.00 0.00 47 1013.3
20260507172005 17 210 11.3 24.1 0.00 0.00 0.00 46 1013.4
20260507171506 17 228 14.5 25.7 0.00 0.00 0.00 47 1013.5
20260507171005 17 173 24.1 35.4 0.00 0.00 0.00 47 1013.5
20260507170515 17 270 9.7 16.1 0.00 0.00 0.00 47 1013.5
20260507170004 17 185 8.0 19.3 0.00 0.00 0.00 48 1013.7
20260507165505 17 234 8.0 24.1 0.00 0.00 0.00 48 1013.9
20260507165008 17 202 14.5 29.0 0.00 0.00 0.00 47 1013.8
20260507164504 17 223 8.0 16.1 0.00 0.00 0.00 47 1013.9
20260507164004 17 194 19.3 20.9 0.00 0.00 0.00 48 1013.9
20260507163505 17 211 20.9 22.5 0.00 0.00 0.00 49 1014.0
20260507163004 16 213 9.7 16.1 0.00 0.00 0.00 49 1014.0
20260507162504 16 192 12.9 19.3 0.00 0.00 0.00 50 1014.1
20260507162004 16 224 9.7 20.9 0.00 0.00 0.00 48 1014.2
20260507161504 16 215 17.7 29.0 0.00 0.00 0.00 50 1014.2
20260507161005 16 198 11.3 29.0 0.00 0.00 0.00 50 1014.2
20260507160504 16 202 17.7 20.9 0.00 0.00 0.00 51 1014.3
20260507160005 16 238 9.7 11.3 0.00 0.00 0.00 51 1014.3
20260507155504 16 221 9.7 12.9 0.00 0.00 0.00 52 1014.5
20260507155004 15 265 20.9 25.7 0.00 0.00 0.00 52 1014.5
20260507154505 15 223 8.0 22.5 0.00 0.00 0.00 54 1014.5
20260507154020 15 220 9.7 19.3 0.00 0.00 0.00 53 1014.6
20260507153505 15 219 9.7 19.3 0.00 0.00 0.00 54 1014.6
20260507153005 15 229 14.5 19.3 0.00 0.00 0.00 54 1014.6
20260507152505 14 249 16.1 24.1 0.00 0.00 0.00 55 1014.6
20260507152005 14 247 9.7 12.9 0.00 0.00 0.00 56 1014.5
20260507151504 14 192 20.9 22.5 0.00 0.00 0.00 56 1014.6
20260507151005 13 214 9.7 12.9 0.00 0.00 0.00 57 1014.7
20260507150505 13 228 11.3 22.5 0.00 0.00 0.00 57 1014.6
20260507150005 13 209 12.9 22.5 0.00 0.00 0.00 58 1014.8
20260507145505 13 194 14.5 19.3 0.00 0.00 0.00 59 1014.8
20260507145007 13 215 9.7 12.9 0.00 0.00 0.00 61 1014.8
20260507144504 13 221 16.1 20.9 0.00 0.00 0.00 62 1014.9
20260507144005 12 206 9.7 12.9 0.00 0.00 0.00 62 1014.9
20260507143504 12 214 9.7 16.1 0.00 0.00 0.00 63 1015.0
20260507143005 12 227 11.3 16.1 0.00 0.00 0.00 64 1015.0
20260507142504 12 215 9.7 19.3 0.00 0.00 0.00 65 1014.9
20260507142005 12 221 12.9 19.3 0.00 0.00 0.00 66 1015.0
20260507141505 11 220 11.3 12.9 0.00 0.00 0.00 67 1014.9
20260507141007 11 229 8.0 9.7 0.00 0.00 0.00 68 1015.0
20260507140506 11 212 3.2 9.7 0.00 0.00 0.00 69 1015.0
20260507140005 11 217 9.7 11.3 0.00 0.00 0.00 69 1015.0
20260507135505 11 229 8.0 11.3 0.00 0.00 0.00 70 1015.1
20260507135004 10 234 8.0 12.9 0.00 0.00 0.00 70 1015.1
20260507134505 10 212 11.3 16.1 0.00 0.00 0.00 71 1015.2
20260507134015 10 221 8.0 12.9 0.00 0.00 0.00 71 1015.1
20260507133505 10 215 14.5 14.5 0.00 0.00 0.00 71 1015.2
20260507133006 10 190 11.3 12.9 0.00 0.00 0.00 72 1015.2
20260507132504 9 233 8.0 12.9 0.00 0.00 0.00 73 1015.3
20260507132005 9 204 4.8 11.3 0.00 0.00 0.00 75 1015.3
20260507131517 8 172 1.6 4.8 0.00 0.00 0.00 75 1015.4
20260507131005 8 186 4.8 4.8 0.00 0.00 0.00 75 1015.5
20260507130506 8 149 3.2 3.2 0.00 0.00 0.00 75 1015.5
20260507130005 8 200 3.2 9.7 0.00 0.00 0.00 75 1015.4
20260507125507 7 208 3.2 9.7 0.00 0.00 0.00 76 1015.4
20260507125007 7 194 1.6 9.7 0.00 0.00 0.00 76 1015.4
20260507124505 7 208 1.6 9.7 0.00 0.00 0.00 77 1015.4
20260507124004 7 158 3.2 4.8 0.00 0.00 0.00 77 1015.4
20260507123504 6 209 1.6 4.8 0.00 0.00 0.00 77 1015.4
20260507123004 6 158 1.6 11.3 0.00 0.00 0.00 77 1015.5
20260507122504 6 205 3.2 4.8 0.00 0.00 0.00 77 1015.5
20260507122004 6 156 1.6 4.8 0.00 0.00 0.00 78 1015.4
20260507121505 6 134 1.6 3.2 0.00 0.00 0.00 77 1015.5
20260507121005 5 134 3.2 3.2 0.00 0.00 0.00 78 1015.4
20260507120504 5 134 1.6 1.6 0.00 0.00 0.00 78 1015.4
20260507120005 5 134 3.2 3.2 0.00 0.00 0.00 78 1015.3
20260507115504 5 136 0.0 1.6 0.00 0.00 0.00 78 1015.3
20260507115005 5 148 0.0 0.0 0.00 0.00 0.00 78 1015.3
20260507114504 5 152 0.0 0.0 0.00 0.00 0.00 78 1015.2
20260507114005 5 152 0.0 0.0 0.00 0.00 0.00 78 1015.2
20260507113505 5 152 0.0 0.0 0.00 0.00 0.00 78 1015.2
20260507113005 5 152 0.0 0.0 0.00 0.00 0.00 78 1015.1
20260507112505 5 152 0.0 0.0 0.00 0.00 0.00 78 1015.1
20260507112005 5 153 0.0 0.0 0.00 0.00 0.00 78 1015.1
20260507111506 5 152 0.0 0.0 0.00 0.00 0.00 77 1015.0
20260507111005 5 152 0.0 0.0 0.00 0.00 0.00 77 1015.0
20260507110504 5 152 0.0 0.0 0.00 0.00 0.00 77 1014.9
20260507110005 5 152 0.0 0.0 0.00 0.00 0.00 77 1014.9
20260507105505 5 152 0.0 0.0 0.00 0.00 0.00 77 1014.9
20260507105004 5 152 0.0 0.0 0.00 0.00 0.00 77 1015.0
20260507104505 5 152 0.0 0.0 0.00 0.00 0.00 77 1015.0
20260507104012 5 152 0.0 0.0 0.00 0.00 0.00 77 1015.0
20260507103505 5 152 0.0 0.0 0.00 0.00 0.00 78 1015.0
20260507103006 5 152 0.0 0.0 0.00 0.00 0.00 78 1015.1
20260507102516 5 152 0.0 0.0 0.00 0.00 0.00 78 1015.2
20260507102007 5 152 0.0 0.0 0.00 0.00 0.00 77 1015.2
20260507101507 5 152 0.0 0.0 0.00 0.00 0.00 77 1015.2
20260507101018 5 152 0.0 0.0 0.00 0.00 0.00 76 1015.2
20260507100506 5 152 0.0 0.0 0.00 0.00 0.00 75 1015.3
20260507100008 5 152 0.0 0.0 0.00 0.00 0.00 76 1015.3
20260507095508 5 152 0.0 0.0 0.00 0.00 0.00 76 1015.3
20260507095005 5 152 0.0 0.0 0.00 0.00 0.00 76 1015.3
20260507094505 5 152 0.0 0.0 0.00 0.00 0.00 76 1015.3
20260507094006 5 152 0.0 0.0 0.00 0.00 0.00 77 1015.4
20260507093510 5 152 0.0 0.0 0.00 0.00 0.00 77 1015.5
20260507093005 5 152 0.0 0.0 0.00 0.00 0.00 77 1015.5
20260507092505 5 152 0.0 0.0 0.00 0.00 0.00 78 1015.5
20260507092006 5 172 0.0 0.0 0.00 0.00 0.00 78 1015.5
20260507091505 5 163 0.0 0.0 0.00 0.00 0.00 78 1015.5
20260507091005 5 139 0.0 0.0 0.00 0.00 0.00 78 1015.6
20260507090506 5 139 0.0 0.0 0.00 0.00 0.00 79 1015.6
20260507090017 5 139 0.0 0.0 0.00 0.00 0.00 79 1015.6
20260507085505 5 139 1.6 3.2 0.00 0.00 0.00 78 1015.6
20260507085007 6 139 1.6 3.2 0.00 0.00 0.00 78 1015.6
20260507084505 6 139 3.2 3.2 0.00 0.00 0.00 77 1015.7
20260507084005 6 139 3.2 3.2 0.00 0.00 0.00 77 1015.8
20260507083504 6 139 1.6 3.2 0.00 0.00 0.00 77 1015.8
20260507083005 6 140 4.8 4.8 0.00 0.00 0.00 78 1015.9
20260507082504 5 138 0.0 0.0 0.00 0.00 0.00 78 1015.9
20260507082005 6 137 0.0 0.0 0.00 0.00 0.00 77 1016.0
20260507081505 6 137 0.0 0.0 0.00 0.00 0.00 78 1016.1
20260507081005 6 137 0.0 0.0 0.00 0.00 0.00 77 1016.0
20260507080505 6 137 0.0 3.2 0.00 0.00 0.00 76 1016.0
20260507080005 6 137 1.6 3.2 0.00 0.00 0.00 75 1016.1
20260507075504 6 160 1.6 3.2 0.00 0.00 0.00 75 1016.1
20260507075005 6 215 0.0 1.6 0.00 0.00 0.00 75 1016.1
20260507074505 6 215 0.0 0.0 0.00 0.00 0.00 75 1016.1
20260507074022 6 214 0.0 0.0 0.00 0.00 0.00 75 1016.1
20260507073506 6 214 0.0 0.0 0.00 0.00 0.00 74 1016.2
20260507073005 6 214 0.0 0.0 0.00 0.00 0.00 74 1016.2
20260507072505 6 214 0.0 0.0 0.00 0.00 0.00 74 1016.3
20260507072004 6 214 0.0 0.0 0.00 0.00 0.00 73 1016.3
20260507071505 6 214 0.0 0.0 0.00 0.00 0.00 73 1016.3
20260507071006 6 214 0.0 0.0 0.00 0.00 0.00 72 1016.4
20260507070519 7 215 0.0 0.0 0.00 0.00 0.00 71 1016.4
20260507070009 7 214 0.0 0.0 0.00 0.00 0.00 70 1016.4
20260507065513 7 214 0.0 0.0 0.00 0.00 0.00 69 1016.5
20260507065010 7 215 0.0 0.0 0.00 0.00 0.00 68 1016.5
20260507064505 7 214 0.0 0.0 0.00 0.00 0.00 67 1016.6
20260507064005 7 214 0.0 0.0 0.00 0.00 0.00 67 1016.6
20260507063504 7 214 0.0 0.0 0.00 0.00 0.00 66 1016.7
20260507063005 7 214 0.0 0.0 0.00 0.00 0.00 65 1016.8
20260507062504 7 215 0.0 0.0 0.00 0.00 0.00 65 1016.8
20260507062006 7 214 0.0 0.0 0.00 0.00 0.00 65 1016.8
20260507061505 8 214 0.0 0.0 0.00 0.00 0.00 64 1016.8
20260507061005 8 215 0.0 0.0 0.00 0.00 0.00 64 1016.8
20260507060505 8 214 0.0 0.0 0.00 0.00 0.00 64 1016.8
20260507060005 8 214 0.0 0.0 0.00 0.00 0.00 63 1016.8
20260507055504 8 214 0.0 0.0 0.00 0.00 0.00 63 1016.9
20260507055014 8 214 0.0 0.0 0.00 0.00 0.00 63 1016.9
20260507054505 8 214 0.0 0.0 0.00 0.00 0.00 63 1017.0
20260507054005 8 215 0.0 0.0 0.00 0.00 0.00 63 1017.0
20260507053514 8 214 0.0 0.0 0.00 0.00 0.00 62 1016.9
20260507053005 8 214 0.0 1.6 0.00 0.00 0.00 60 1016.9
20260507052505 8 215 0.0 1.6 0.00 0.00 0.00 59 1016.9
20260507052005 8 215 0.0 0.0 0.00 0.00 0.00 59 1017.0
20260507051505 8 214 0.0 0.0 0.00 0.00 0.00 59 1017.0
20260507051005 8 215 0.0 0.0 0.00 0.00 0.00 58 1017.0
20260507050505 8 214 0.0 0.0 0.00 0.00 0.00 58 1017.1
20260507050016 8 214 0.0 0.0 0.00 0.00 0.00 59 1017.0
20260507045505 8 215 0.0 0.0 0.00 0.00 0.00 59 1017.0
20260507045008 8 214 0.0 0.0 0.00 0.00 0.00 60 1017.0
20260507044505 8 214 0.0 0.0 0.00 0.00 0.00 60 1017.0
20260507044005 8 215 0.0 0.0 0.00 0.00 0.00 60 1017.0
20260507043504 8 214 0.0 0.0 0.00 0.00 0.00 60 1017.1
20260507043005 8 214 1.6 1.6 0.00 0.00 0.00 61 1017.1
20260507042504 8 312 0.0 0.0 0.00 0.00 0.00 60 1017.1
20260507042005 8 316 0.0 0.0 0.00 0.00 0.00 61 1017.2
20260507041504 8 312 0.0 0.0 0.00 0.00 0.00 59 1017.1
20260507041005 8 315 0.0 0.0 0.00 0.00 0.00 59 1017.1
20260507040504 8 313 0.0 0.0 0.00 0.00 0.00 59 1017.1
20260507040005 8 311 0.0 0.0 0.00 0.00 0.00 58 1017.1
20260507035505 9 311 0.0 0.0 0.00 0.00 0.00 57 1017.1
20260507035005 9 314 0.0 0.0 0.00 0.00 0.00 56 1017.2
20260507034505 9 310 0.0 0.0 0.00 0.00 0.00 55 1017.2
20260507034005 9 314 0.0 0.0 0.00 0.00 0.00 54 1017.1
20260507033517 9 314 0.0 0.0 0.00 0.00 0.00 54 1017.1
20260507033005 9 315 0.0 0.0 0.00 0.00 0.00 53 1017.1
20260507032505 9 313 0.0 0.0 0.00 0.00 0.00 53 1017.2
20260507032005 9 312 0.0 0.0 0.00 0.00 0.00 52 1017.2
20260507031506 9 313 0.0 0.0 0.00 0.00 0.00 52 1017.2
20260507031005 9 311 0.0 0.0 0.00 0.00 0.00 50 1017.1
20260507030506 9 312 0.0 0.0 0.00 0.00 0.00 50 1017.1
20260507030011 10 315 0.0 0.0 0.00 0.00 0.00 50 1017.2
20260507025505 10 313 0.0 0.0 0.00 0.00 0.00 49 1017.1
20260507025008 10 311 0.0 0.0 0.00 0.00 0.00 49 1017.1
20260507024505 10 314 0.0 0.0 0.00 0.00 0.00 47 1017.0
20260507024005 10 312 0.0 0.0 0.00 0.00 0.00 47 1017.1
20260507023505 10 312 0.0 0.0 0.00 0.00 0.00 45 1017.0
20260507023005 10 312 0.0 0.0 0.00 0.00 0.00 45 1016.9
20260507022504 10 314 0.0 0.0 0.00 0.00 0.00 45 1016.9
20260507022006 10 313 0.0 0.0 0.00 0.00 0.00 44 1016.8
20260507021505 11 314 0.0 0.0 0.00 0.00 0.00 44 1016.8
20260507021004 11 316 0.0 0.0 0.00 0.00 0.00 43 1016.8
20260507020504 11 315 0.0 0.0 0.00 0.00 0.00 42 1016.7
20260507020005 11 312 0.0 0.0 0.00 0.00 0.00 42 1016.6
20260507015504 11 312 0.0 0.0 0.00 0.00 0.00 41 1016.5
20260507015005 11 311 0.0 0.0 0.00 0.00 0.00 41 1016.5